Barrow, AK

7:20 PM AKDT on June 18, 2018 (GMT -0800)
Wiley Post-Will Rogers Memorial

Weather History for PABR - January, 2017

Change the Weather History Date:

Saturday, January 28, 2017

  Actual Average Record
Temperature  
Mean Temperature 3 °F -14 °F  
Max Temperature 6 °F -8 °F 34 °F (1963)
Min Temperature 0 °F -20 °F -45 °F (1989)
Degree Days  
Heating Degree Days 62 79  
Month to date heating degree days 1853 2192  
Since 1 July heating degree days 8812 10401  
Cooling Degree Days 0 0  
Month to date cooling degree days 0 0  
Year to date cooling degree days 0 0  
Moisture  
Dew Point -2 °F    
Average Humidity 78    
Maximum Humidity 84    
Minimum Humidity 72    
Precipitation  
Precipitation T in 0.01 in 0.09 in (1958)
Month to date precipitation 0.47 0.12  
Year to date precipitation 0.47 0.12  
Snow  
Snow T in 0.00 in 3.70 in (1937)
Month to date snowfall 4.7 2.3  
Since 1 July snowfall 22.0 26.1  
Snow Depth 6.00 in    
Sea Level Pressure  
Sea Level Pressure 29.56 in    
Wind  
Wind Speed 10 mph (ENE)    
Max Wind Speed 13 mph    
Max Gust Speed -    
Visibility 4 miles    
Events Snow    
T = Trace of Precipitation, MM = Missing Value Source: NWS Daily Summary

Daily Weather History Graph

Daily Weather History Graph

Search for Another Location

Airport or City:

Astronomy

Jan. 28, 2017 Rise Set
Actual Time 12:02 PM AKST 3:19 PM AKST
Civil Twilight 10:12 AM AKST 5:09 PM AKST
Nautical Twilight 8:44 AM AKST 6:37 PM AKST
Astronomical Twilight 7:28 AM AKST 7:53 PM AKST
Moon 11:27 AM AKST (1/28) 5:36 PM AKST (1/28)
Length of Visible Light 6h 57m
Length of Day
3h 17m
New Moon, 1% of the Moon is Illuminated
Jan 28
New Moon
Feb 3
First Quarter
Feb 10
Full
Feb 18
Last Quarter
Feb 26
New

Hourly Weather History & Observations

Time (AKST) Temp. Windchill Dew Point Humidity Pressure Visibility Wind Dir Wind Speed Gust Speed Precip Events Conditions
12:53 AM 1.0 °F -14.9 °F -5.1 °F 75% 29.60 in 10.0 mi ENE 10.4 mph - N/A   Overcast
1:53 AM -0.0 °F -15.3 °F -7.1 °F 72% 29.61 in 10.0 mi ENE 9.2 mph - N/A   Overcast
2:53 AM 1.9 °F -13.8 °F -4.0 °F 76% 29.60 in 10.0 mi NE 10.4 mph - N/A   Overcast
3:53 AM 1.9 °F -13.8 °F -4.0 °F 76% 29.59 in 10.0 mi ENE 10.4 mph - N/A   Overcast
4:50 AM 3.2 °F -12.2 °F -2.2 °F 78% 29.57 in 10.0 mi NE 10.4 mph - N/A   Overcast
4:53 AM 3.0 °F -12.5 °F -2.9 °F 76% 29.58 in 10.0 mi NE 10.4 mph - N/A   Overcast
5:53 AM 3.0 °F -12.5 °F -2.9 °F 76% 29.57 in 10.0 mi NE 10.4 mph - N/A   Overcast
6:53 AM 1.9 °F -13.8 °F -4.0 °F 76% 29.57 in 10.0 mi ENE 10.4 mph - N/A   Overcast
7:53 AM 1.9 °F -13.8 °F -4.0 °F 76% 29.57 in 3.0 mi ENE 10.4 mph - N/A   Overcast
7:55 AM 1.9 °F -13.8 °F -4.0 °F 76% 29.56 in 2.5 mi ENE 10.4 mph - N/A   Overcast
8:24 AM 1.0 °F -14.9 °F -5.1 °F 75% 29.55 in 1.2 mi ENE 10.4 mph - 0.00 in Snow Light Snow
8:53 AM 1.0 °F -14.9 °F -5.1 °F 75% 29.56 in 1.5 mi ENE 10.4 mph - 0.00 in   Overcast
9:13 AM 1.9 °F -13.8 °F -4.0 °F 76% 29.55 in 9.0 mi NE 10.4 mph - N/A   Overcast
9:53 AM 1.9 °F -13.8 °F -4.0 °F 76% 29.55 in 3.0 mi NE 10.4 mph - N/A   Overcast
10:35 AM 1.9 °F -14.7 °F -4.0 °F 76% 29.55 in 6.0 mi ENE 11.5 mph - N/A   Overcast
10:53 AM 1.9 °F -12.9 °F -2.9 °F 80% 29.55 in 2.5 mi ENE 9.2 mph - N/A   Overcast
11:07 AM 1.9 °F -14.7 °F -4.0 °F 76% 29.54 in 1.0 mi ENE 11.5 mph - 0.00 in Snow Light Snow
11:11 AM 1.9 °F -13.8 °F -2.9 °F 80% 29.54 in 0.8 mi ENE 10.4 mph - 0.00 in Snow Light Snow
11:53 AM 1.9 °F -15.5 °F -4.0 °F 76% 29.55 in 0.5 mi ENE 12.7 mph - 0.00 in Snow Snow
12:03 PM 3.0 °F -12.5 °F -2.9 °F 76% 29.54 in 0.8 mi ENE 10.4 mph - 0.00 in Snow Light Snow
12:33 PM 3.0 °F -13.3 °F -2.9 °F 76% 29.54 in 0.8 mi ENE 11.5 mph - 0.00 in Snow Light Snow
12:41 PM 1.9 °F -11.8 °F -2.9 °F 80% 29.54 in 0.5 mi ENE 8.1 mph - 0.00 in Snow Snow
12:50 PM 3.2 °F -11.3 °F -2.2 °F 78% 29.55 in 0.5 mi ENE 9.2 mph - 0.00 in Snow Snow
12:53 PM 3.0 °F -11.5 °F -2.9 °F 76% 29.56 in 0.8 mi ENE 9.2 mph - 0.00 in Snow Light Snow
1:09 PM 3.9 °F -11.3 °F -2.0 °F 76% 29.55 in 1.0 mi East 10.4 mph - 0.00 in   Overcast
1:53 PM 3.9 °F -10.4 °F -0.9 °F 80% 29.55 in 1.0 mi East 9.2 mph - 0.00 in Snow Light Snow
2:53 PM 3.9 °F -11.3 °F -0.9 °F 80% 29.55 in 1.0 mi ENE 10.4 mph - 0.00 in   Overcast
3:53 PM 5.0 °F -10.0 °F -0.0 °F 80% 29.54 in 2.0 mi ENE 10.4 mph - 0.00 in   Overcast
4:53 PM 5.0 °F -11.6 °F -0.0 °F 80% 29.53 in 1.0 mi ENE 12.7 mph - 0.00 in Snow Light Snow
5:32 PM 5.0 °F -9.1 °F -0.0 °F 80% 29.53 in 1.0 mi ENE 9.2 mph - 0.00 in Snow Light Snow
5:53 PM 5.0 °F -6.9 °F -0.0 °F 80% 29.54 in 1.0 mi East 6.9 mph - 0.00 in Snow Light Snow
5:56 PM 5.0 °F -6.9 °F -0.0 °F 80% 29.53 in 2.5 mi East 6.9 mph - 0.00 in Snow Light Snow
5:59 PM 5.0 °F -6.9 °F -0.0 °F 80% 29.54 in 3.0 mi East 6.9 mph - 0.00 in   Overcast
6:53 PM 5.0 °F -6.9 °F 1.0 °F 84% 29.55 in 3.0 mi East 6.9 mph - 0.00 in Snow Light Snow
7:53 PM 5.0 °F -5.6 °F -0.0 °F 80% 29.55 in 8.0 mi ESE 5.8 mph - 0.00 in   Overcast
8:53 PM 5.0 °F -6.9 °F -0.9 °F 76% 29.56 in 8.0 mi SE 6.9 mph - N/A   Overcast
9:53 PM 5.0 °F -6.9 °F 1.0 °F 84% 29.56 in 0.8 mi SE 6.9 mph - N/A   Mist
10:15 PM 5.0 °F -9.1 °F -0.0 °F 80% 29.56 in 1.0 mi SE 9.2 mph - 0.00 in   Unknown
10:29 PM 5.0 °F -8.1 °F -0.0 °F 80% 29.56 in 3.0 mi SE 8.1 mph - 0.00 in   Overcast
10:53 PM 3.9 °F -11.3 °F -0.0 °F 84% 29.57 in 7.0 mi SE 10.4 mph - 0.00 in   Overcast
11:53 PM 3.9 °F -11.3 °F -0.9 °F 80% 29.58 in 3.0 mi ESE 10.4 mph - 0.00 in   Overcast
11:57 PM 3.9 °F -11.3 °F -0.9 °F 80% 29.57 in 1.8 mi ESE 10.4 mph - 0.00 in   Overcast